Regional Weather Roundup
Issued by NWS

Home | Current Version | Previous Version | Text Only | Print | Product List | Glossary Off
Versions: 1 2 3 4 5 6 7 8 9 10 11 12 13 14 15 16 17 18 19 20 21 22 23 24 25 26 27 28 29 30 31 32 33 34 35 36 37 38 39 40 41 42 43 44 45 46 47 48 49 50

000
ASUS45 KBOU 311510
RWRCO

WEATHER ROUNDUP FOR COLORADO
NATIONAL WEATHER SERVICE DENVER/BOULDER CO
900 AM MDT FRI JUL 31 2015

NOTE: "FAIR" INDICATES FEW OR NO CLOUDS BELOW 12000 FEET WITH NO
SIGNIFICANT WEATHER AND/OR OBSTRUCTIONS TO VISIBILITY.

COZ001>005-013-030-031-311600-
...NORTHWEST COLORADO...

CITY           SKY/WX    TMP DP  RH WIND       PRES   REMARKS
CRAIG          SUNNY     63  40  42 CALM      30.40S
HAYDEN         SUNNY     66  37  34 SE6       30.41S
MEEKER         SUNNY     63  36  36 S5        30.41S
MOUNT WERNER   NOT AVBL
STEAMBOAT SPGS SUNNY     60  41  48 CALM      30.44S
WALDEN         SUNNY     57  34  41 CALM      30.54S
$$

COZ006>008-011-311600-
...WEST CENTRAL VALLEYS...

CITY           SKY/WX    TMP DP  RH WIND       PRES   REMARKS
GRAND JUNCTION MOSUNNY   70  30  22 CALM      30.30R
MONTROSE       MOSUNNY   74  45  35 CALM      30.38S
EAGLE          NOT AVBL
RIFLE          SUNNY     67  39  35 CALM      30.36S
DELTA          MOSUNNY   73  42  33 CALM      30.34F
NUCLA          MOSUNNY   68  48  49 CALM      30.43S
$$

COZ017>023-064>068-311600-
...SOUTHWEST COLORADO...

CITY           SKY/WX    TMP DP  RH WIND       PRES   REMARKS
DURANGO        CLOUDY    63  58  83 SE3       30.45R
CORTEZ         PTSUNNY   65  59  81 CALM      30.40R
PAGOSA SPRINGS CLOUDY    64  55  70 CALM      30.52R
TELLURIDE      CLOUDY    59  46  62 CALM      30.61S
WOLF CREEK PAS NOT AVBL
$$

COZ009-010-012-014-032>034-037-058>063-311600-
...CENTRAL COLORADO...

CITY           SKY/WX    TMP DP  RH WIND       PRES   REMARKS
ASPEN          SUNNY     65  47  52 N6        30.49S
BUENA VISTA    PTSUNNY   64  48  54 CALM      30.54F
COPPER MTN     SUNNY     59  36  41 S14       30.82S
BERTHOUD PASS  FAIR      48  37  66 SE13      30.87S
COTTONWOOD PAS MOSUNNY   61  50  67 E5        30.67S
GUNNISON       MOSUNNY   61  45  55 NW5       30.54S
KREMMLING      SUNNY     59  36  41 CALM      30.52F
LEADVILLE      SUNNY     56  44  64 CALM      30.66S
MONARCH PASS   CLOUDY    52  41  66 E8        30.91S
SALIDA         MOSUNNY   62  50  63 N7        30.60S
SUNLIGHT       MOSUNNY   61  43  51 CALM      30.75R
WILKERSON PASS SUNNY     57  39  51 SE5       30.80F
$$

COZ069>075-311600-
...SAN LUIS VALLEY/SANGRE DE CRISTO MOUNTAINS...

CITY           SKY/WX    TMP DP  RH WIND       PRES   REMARKS
ALAMOSA        PTSUNNY   61  52  72 CALM      30.51R
LA VETA PASS   SUNNY     59  46  63 MISG      30.68S
SAGUACHE       MOSUNNY   64  52  63 CALM      30.54S
$$

COZ035-036-038>040-311600-
...NORTHERN COLORADO FRONT RANGE...

CITY           SKY/WX    TMP DP  RH WIND       PRES   REMARKS
DENVER INTL AP MOSUNNY   73  57  57 VRB5      30.36S
DMNS CITY PARK   N/A     74  57  55 N7        30.37S
AURORA         MOSUNNY   71  55  56 VRB3      30.39S
FRONT RANGE AP MOSUNNY   72  55  56 CALM      30.38S
ERIE MUNI ARPT SUNNY     71  58  61 CALM      30.35S
BOULDER MUN AP SUNNY     70  59  68 CALM      30.36R
CENTENNIAL     MOSUNNY   71  50  47 VRB5      30.39S
BROOMFIELD     MOSUNNY   72  57  60 CALM      30.38S
FORT COLLINS   SUNNY     72  57  60 NE6       30.35S
LONGMONT       SUNNY     74  57  54 SW5       30.36S
$$

COZ041-046-047-076>085-087-088-311600-
...PIKES PEAK/PALMER DIVIDE AND SOUTHERN FOOTHILLS...

CITY           SKY/WX    TMP DP  RH WIND       PRES   REMARKS
COLO. SPRINGS  MOSUNNY   73  55  53 VRB3      30.42S
A. F. ACADEMY  SUNNY     69  54  58 VRB2      30.44S
ELLICOTT       SUNNY    N/A N/A N/A SE5       30.41S
FALCON         SUNNY     72  49  45 CALM      30.47S
FORT CARSON    SUNNY     71  56  58 NE5       30.39S
LIMON          SUNNY     71  63  75 SE7       30.38S
MONUMENT HILL  SUNNY     70  50  49 CALM      30.47S
TRINIDAD       PTSUNNY   71  55  56 NW5       30.39R
$$

COZ042>045-048>051-090-091-311600-
...NORTHEAST COLORADO...

CITY           SKY/WX    TMP DP  RH WIND       PRES   REMARKS
GREELEY ARPT   SUNNY     68  59  73 CALM      30.34S
AKRON          SUNNY     78  57  48 S7        30.32F
BURLINGTON     MOSUNNY   71  66  84 S12       30.33R
WRAY           SUNNY     76  61  59 SW7       30.28S
STERLING       SUNNY     75  59  57 S5        30.28S
HOLYOKE        NOT AVBL
FORT MORGAN    SUNNY     71  58  64 S7        30.33R
$$

COZ086-089-092>099-311600-
...SOUTHEAST COLORADO...

CITY           SKY/WX    TMP DP  RH WIND       PRES   REMARKS
PUEBLO         SUNNY     74  61  63 NW3       30.33F
LA JUNTA       SUNNY     74  63  68 E7        30.31S
LAMAR          MOSUNNY   76  64  66 S10       30.28S
SPRINGFIELD      N/A     66  63  90 S12       30.33S
$$



USA.gov is the U.S. government's official web portal to all federal, state and local government web resources and services.